Wind_Speed
39 39 40 40 41 43 45 45 46 46 46 48 50 48 47 49 49 46 44 43 42 42 40 37 36 35 34 32 32 30 29 27 27 26 25 25 24 24 24 25 26 26 25 24 24 24 24 24 24 25 25 26 27 27 27 27 27 27 27 27 27 27 28 28 28 29 29 29 29 31 32 33 34 35 35 34 35 35 36 36 36 37 38 39 39 39 38
38 37 38 39 41 43 45 45 46 47 47 48 48 47 47 49 48 44 43 42 41 41 41 39 37 36 35 35 34 32 31 29 29 28 26 25 24 23 23 24 24 24 23 22 22 23 23 24 25 26 27 27 27 27 27 27 27 27 26 26 26 26 26 27 27 28 29 29 30 31 33 34 34 33 33 33 34 34 35 35 36 37 38 38 38 38 38
38 38 38 40 41 43 44 44 46 47 48 49 48 47 48 49 47 44 44 43 39 38 40 40 40 38 37 36 34 33 32 30 29 28 27 26 25 24 24 24 24 23 22 22 22 23 24 25 26 26 27 27 27 27 27 27 27 26 26 25 25 25 25 26 27 28 30 31 32 32 33 33 31 30 31 31 33 33 34 35 36 36 37 37 37 37 38
38 38 39 39 40 42 43 44 45 47 48 49 49 50 50 49 47 45 44 43 41 39 38 40 40 39 38 37 36 34 33 32 30 29 28 27 27 27 26 26 25 24 23 22 22 23 24 25 25 26 26 27 27 27 27 27 27 27 26 26 25 25 25 26 27 28 29 30 30 29 29 29 28 28 30 31 32 33 34 34 35 35 36 36 37 38 39
36 37 37 38 39 41 42 43 44 45 47 48 49 50 49 47 46 46 44 43 41 39 38 38 38 38 38 37 36 35 34 33 32 31 29 28 28 27 27 26 25 24 24 23 23 23 24 24 25 25 26 26 26 26 26 26 27 27 27 28 28 27 26 26 26 26 26 25 25 25 25 26 27 28 30 31 32 32 33 33 34 35 35 36 37 38 38
34 34 35 38 40 41 43 43 43 44 45 45 46 47 46 46 45 45 43 41 40 39 38 38 37 36 35 34 34 35 35 34 33 32 31 29 28 27 26 26 25 25 25 24 24 24 25 25 25 25 25 25 25 25 25 25 25 26 27 28 29 29 28 28 28 28 27 25 24 25 25 26 27 28 29 30 30 31 32 33 33 34 35 36 37 37 38
33 32 33 37 40 41 42 43 43 43 42 42 44 44 44 44 44 43 41 40 39 39 38 38 37 35 35 35 35 35 35 34 34 32 31 29 28 27 27 26 26 26 25 25 25 26 26 25 25 24 24 24 24 24 25 25 25 25 26 26 26 27 28 28 28 28 26 25 24 24 24 25 26 27 28 29 29 31 32 32 33 34 35 36 36 37 38
33 32 32 36 39 40 42 42 41 41 41 41 42 43 42 42 42 41 40 39 39 39 38 38 38 37 37 36 36 35 34 34 33 32 30 28 28 27 27 26 26 26 26 26 27 26 25 24 24 24 24 24 24 25 25 25 25 25 26 25 24 25 26 26 25 25 24 24 23 23 24 25 26 27 28 29 30 31 32 32 33 34 35 36 37 37 38
31 31 32 35 36 37 38 39 39 39 39 40 40 41 40 40 39 39 39 39 38 38 38 38 38 37 37 36 36 35 33 32 32 31 30 28 28 27 27 27 27 27 27 26 26 24 24 23 23 23 23 24 24 25 26 26 26 26 26 25 25 25 25 24 24 23 23 23 23 24 25 26 27 27 29 30 30 31 31 32 33 34 35 36 36 37 37
29 31 32 33 34 36 34 34 36 38 38 38 39 39 39 38 37 37 37 37 38 37 37 37 37 37 37 36 34 33 32 32 31 31 30 28 28 28 28 27 26 25 25 24 24 23 23 23 23 23 24 24 25 25 26 26 27 27 26 25 25 24 24 24 23 22 22 22 23 24 25 26 27 28 29 29 29 30 31 32 33 34 35 35 35 36 36
30 32 33 33 34 35 32 30 33 36 36 37 38 37 37 36 35 35 35 35 36 36 35 35 35 36 35 33 31 30 31 31 30 30 29 28 27 26 25 24 24 23 23 23 23 22 23 23 24 24 25 25 25 26 26 27 27 26 25 25 24 24 23 22 22 21 22 23 24 25 26 27 27 28 28 28 29 30 31 32 33 34 34 34 34 35 35
29 31 33 33 32 34 32 30 31 32 33 36 36 34 34 34 34 35 34 33 33 34 34 34 34 34 32 30 29 29 30 30 30 29 27 25 24 24 24 23 24 23 23 22 22 22 23 24 25 25 26 26 27 27 27 27 26 26 25 24 23 22 22 21 21 21 22 23 24 25 26 26 27 27 27 28 29 30 31 32 33 33 33 33 34 34 36
26 28 32 32 32 33 31 29 31 33 32 34 34 33 33 35 33 32 33 32 32 32 33 33 32 32 31 29 28 29 30 29 29 29 27 26 25 25 24 24 24 23 22 22 22 23 24 25 26 27 27 27 27 27 27 26 26 25 25 24 23 21 21 20 21 22 23 24 25 25 26 26 26 26 27 28 29 31 31 32 32 32 32 33 33 35 36
25 26 28 30 33 33 29 28 32 34 33 33 34 33 34 34 32 31 32 32 31 31 31 32 32 32 31 29 28 29 30 29 28 28 28 28 27 27 26 25 24 23 22 23 23 24 24 25 27 28 28 28 27 27 27 26 26 26 25 23 22 21 21 21 22 23 24 24 25 25 25 25 25 26 27 29 30 30 30 30 31 31 32 33 34 35 37
23 25 27 30 33 32 28 28 31 32 33 33 33 32 33 33 32 32 32 32 32 32 32 33 33 33 30 28 28 29 29 29 29 29 29 29 29 28 27 25 24 24 24 25 25 25 25 26 27 28 28 27 27 27 26 26 26 25 24 22 21 21 21 22 23 23 24 24 24 25 24 24 25 26 28 29 29 29 29 29 30 31 32 33 35 36 36
22 24 27 29 29 27 26 27 30 31 32 32 32 32 33 33 34 34 32 32 33 34 35 34 34 32 31 29 28 27 27 28 29 30 30 31 30 29 28 27 26 27 27 27 27 27 27 27 28 28 28 27 26 26 26 26 25 24 23 22 21 21 22 22 23 24 24 24 24 24 24 24 25 26 28 28 28 28 28 29 30 31 32 34 35 34 33
19 21 23 23 24 24 26 28 29 30 31 32 33 34 34 34 34 34 34 34 34 35 35 35 34 32 30 29 28 27 27 28 30 30 30 31 32 31 30 29 29 29 29 29 29 29 28 28 28 28 27 26 26 26 26 25 24 23 22 22 22 22 22 23 24 24 24 24 23 23 23 24 25 26 27 27 27 27 27 28 29 31 32 33 33 31 30
16 17 17 19 21 23 27 29 29 31 32 33 34 35 36 36 36 35 34 34 35 36 35 34 34 32 30 29 28 27 26 26 27 29 30 30 30 30 30 30 31 31 30 30 30 29 28 29 28 27 26 26 26 27 26 25 23 22 22 22 22 22 23 24 24 24 24 23 23 23 23 24 25 25 25 25 25 26 27 28 30 31 32 31 30 28 27
16 17 16 17 19 22 25 28 30 31 32 33 34 36 36 36 36 36 34 33 35 38 37 34 32 31 30 29 29 28 25 23 23 26 28 28 28 28 29 30 31 30 30 29 29 29 29 28 27 26 26 27 27 27 25 24 23 22 22 22 23 23 24 24 24 23 23 22 22 23 23 23 23 23 23 24 24 25 27 28 29 30 29 28 26 25 26
19 18 17 18 19 20 22 26 30 32 32 33 35 35 36 34 33 32 32 30 31 35 37 35 33 31 30 30 30 28 26 24 23 24 26 27 28 28 29 29 29 29 28 28 28 28 28 27 27 27 27 27 26 26 24 24 23 23 23 23 23 24 24 24 23 22 22 22 22 22 22 22 22 22 22 23 24 25 27 28 28 27 26 24 24 24 25
21 21 20 20 20 21 21 23 26 30 32 34 35 36 36 35 32 30 28 26 25 26 29 30 31 30 30 30 30 29 27 25 24 24 25 26 27 27 28 28 27 27 27 27 27 27 27 26 27 27 27 26 26 25 24 24 24 24 24 24 24 24 24 23 22 22 21 22 22 21 21 20 20 21 21 22 24 25 26 27 26 24 22 22 22 23 24
20 20 20 20 20 21 21 22 24 27 29 32 34 36 36 36 33 30 27 25 23 22 23 25 27 29 30 31 32 32 30 27 26 25 26 27 28 27 27 27 27 26 26 26 26 26 26 27 27 27 27 26 25 25 24 24 25 25 25 25 24 24 23 22 22 21 21 21 20 20 19 19 20 20 21 22 24 25 25 24 22 21 20 20 21 22 24
16 16 17 19 19 19 19 21 23 24 26 28 31 33 33 33 32 30 29 28 27 26 26 26 27 29 31 32 33 34 33 31 29 28 29 29 29 29 28 28 28 27 27 27 27 27 27 27 27 26 25 25 25 25 25 26 26 27 26 25 24 23 22 21 21 21 20 20 19 18 18 18 19 19 20 22 23 23 22 21 19 18 19 19 20 22 23
14 15 16 18 19 19 19 21 22 23 25 26 28 29 31 31 32 32 31 31 31 30 30 30 30 31 31 32 33 34 34 32 31 31 32 32 31 30 30 30 29 28 28 28 29 29 29 28 27 25 25 25 25 26 27 28 28 27 26 24 23 22 21 20 20 20 19 18 18 17 17 17 18 19 20 22 22 21 19 18 17 17 18 19 20 21 22
14 14 15 16 17 17 19 20 22 23 24 25 26 27 29 29 30 31 30 30 31 31 32 32 32 32 32 32 32 32 32 32 33 33 33 33 32 32 31 30 30 29 29 29 30 30 29 28 26 25 25 25 26 27 29 29 28 26 23 22 22 20 19 19 19 18 18 17 16 16 16 16 17 19 20 20 19 17 16 15 16 16 17 18 19 20 21
14 13 13 14 14 15 17 18 20 23 24 24 25 26 27 27 28 28 28 28 29 29 30 31 31 32 32 33 32 30 29 31 33 34 33 33 33 33 32 31 30 30 30 30 29 28 27 26 25 25 25 27 29 30 29 27 24 22 22 21 20 20 19 19 18 17 16 16 15 15 15 16 17 18 18 17 16 14 14 14 15 15 16 17 18 19 21
14 14 14 14 14 15 16 17 18 20 22 24 25 25 26 27 27 27 27 27 26 27 27 28 29 30 31 31 31 29 28 30 33 35 35 34 34 33 33 31 31 32 32 31 29 27 26 26 26 25 25 27 29 29 26 23 22 21 21 21 20 20 19 18 17 16 15 15 14 14 14 15 16 16 15 14 13 12 13 13 14 15 15 16 18 19 20
15 15 15 15 15 15 15 16 16 16 18 20 22 23 24 25 26 27 27 25 24 25 25 26 27 27 28 28 28 28 27 28 30 32 33 33 32 34 34 32 32 33 32 30 27 27 27 27 27 26 26 27 27 26 24 23 22 22 21 20 20 20 18 17 16 15 15 14 13 13 14 14 14 14 13 11 11 11 12 13 13 14 15 16 17 19 20
17 16 16 16 15 15 15 15 15 15 16 17 18 20 20 20 21 22 23 23 23 23 23 24 25 25 25 25 25 25 25 26 27 29 30 31 33 35 35 32 31 31 29 27 26 26 26 27 28 28 28 27 25 24 23 22 22 22 21 21 20 19 17 16 15 15 14 13 12 12 13 13 13 12 10 9 9 10 11 12 13 14 15 16 18 19 20
17 17 17 17 16 15 14 14 14 15 15 16 17 18 18 18 18 19 20 21 22 22 22 23 24 24 24 24 24 24 24 24 26 27 28 29 33 36 35 33 32 31 28 26 26 26 27 28 28 27 25 24 23 22 22 22 22 21 21 20 19 18 17 16 15 14 13 12 12 12 11 11 11 9 8 8 9 10 11 12 13 14 15 17 18 19 20
14 15 16 16 16 15 14 14 14 14 15 16 16 17 18 18 19 19 20 21 21 21 22 22 23 24 25 25 25 24 24 24 24 25 27 29 32 34 35 34 33 30 28 28 29 29 28 27 26 24 23 22 22 22 22 22 21 21 20 20 19 18 16 16 15 14 13 12 11 11 10 9 9 8 7 7 8 10 11 12 13 15 16 17 18 20 21
13 13 14 15 15 14 14 14 14 14 14 15 15 15 16 16 17 19 20 20 21 21 22 23 24 25 25 26 26 26 26 25 25 25 27 29 31 32 33 33 33 31 30 30 31 30 27 24 23 22 22 21 21 22 22 22 22 21 20 20 19 17 16 16 15 13 12 11 11 10 9 8 7 7 7 7 9 10 11 12 14 15 16 18 19 20 21
15 15 15 16 16 16 16 16 16 16 16 16 16 16 16 16 16 17 19 20 21 21 21 22 23 23 24 24 25 26 27 27 27 27 28 30 32 32 32 32 33 33 32 31 29 26 22 20 20 20 20 20 21 22 22 22 21 21 20 19 19 18 17 16 15 13 12 12 11 9 7 7 6 7 7 8 9 11 12 14 15 16 17 18 19 20 22
17 17 18 18 18 18 18 18 18 18 18 19 19 19 19 19 18 18 19 20 21 21 21 21 22 22 22 23 24 25 26 26 27 27 28 29 31 33 34 35 36 36 35 31 27 22 19 18 18 18 19 21 22 22 22 21 21 21 20 20 19 18 18 16 15 14 13 12 10 9 7 6 6 7 8 9 11 12 14 15 16 17 18 19 20 21 22
19 19 19 20 20 20 20 20 20 20 21 21 21 21 22 22 21 21 21 22 23 23 23 23 23 23 22 23 23 24 24 24 24 25 27 30 31 31 32 35 38 39 35 29 24 21 20 19 18 18 19 21 22 22 22 22 21 22 21 21 20 19 18 17 15 15 14 13 11 10 8 8 8 8 9 11 12 14 15 17 18 19 20 21 21 22 22
17 18 18 19 19 20 21 21 21 22 22 23 23 24 24 24 24 24 24 25 25 25 26 26 25 25 24 24 24 25 25 24 23 23 24 27 28 27 27 30 35 36 32 26 24 23 21 19 18 19 20 21 21 22 22 22 23 23 22 21 20 20 19 17 16 16 15 14 13 12 11 10 10 11 12 13 14 15 17 18 19 20 21 22 23 23 24
14 15 15 16 17 18 19 20 20 21 22 23 24 25 25 26 26 27 27 27 27 28 28 28 28 27 27 27 28 27 27 27 26 25 24 24 25 24 23 24 28 30 29 27 25 23 21 20 19 20 20 20 21 22 23 24 24 23 23 22 21 20 19 18 18 17 16 16 15 14 14 13 13 13 14 15 15 16 17 19 20 21 22 23 24 25 25
12 13 13 14 15 15 16 17 17 18 19 21 22 23 24 25 26 27 28 28 29 30 30 30 30 30 30 30 30 30 29 29 29 28 27 26 24 23 23 23 24 28 29 28 26 24 22 21 21 21 20 21 23 24 24 25 25 24 23 23 22 21 20 20 19 19 18 18 17 17 16 16 16 16 16 17 17 18 18 19 21 22 23 24 25 26 27
11 11 12 12 13 13 14 14 15 15 16 16 18 19 20 22 23 25 26 27 28 29 30 30 31 31 31 30 30 30 29 29 29 29 29 28 26 25 25 27 28 30 31 30 28 25 24 23 23 23 23 24 25 25 26 26 26 25 25 23 22 22 21 21 20 20 20 20 19 19 18 18 18 18 19 19 19 19 20 21 22 23 24 26 26 27 27
10 10 11 12 12 12 12 12 13 13 13 14 15 16 17 19 21 22 23 24 26 27 28 29 30 30 31 31 31 30 30 30 30 30 30 29 29 28 29 30 31 31 30 29 28 26 25 25 25 25 26 26 27 27 28 28 27 27 26 25 24 23 22 22 22 22 22 22 22 21 21 20 20 21 21 21 22 22 22 23 24 25 26 27 28 28 29
8 8 9 10 11 11 12 12 12 12 13 13 14 15 16 18 19 21 22 23 24 25 26 26 27 28 29 30 29 29 29 28 28 28 28 27 27 27 27 28 29 29 29 27 26 25 25 26 27 27 28 28 29 29 29 29 28 28 27 26 25 24 23 23 23 23 23 23 23 23 23 23 23 23 23 24 24 25 25 26 26 27 28 29 30 30 30
6 6 6 6 7 8 9 10 11 11 11 12 12 13 14 15 16 18 19 21 22 23 23 23 24 25 26 26 26 25 25 25 25 26 26 26 25 25 26 27 28 29 28 27 25 24 25 26 27 27 28 29 29 29 30 29 29 28 27 26 26 25 25 25 25 25 25 25 25 25 25 25 25 26 26 26 27 28 28 29 30 30 31 31 32 32 32
4 4 4 4 4 5 6 7 8 9 10 10 11 12 12 12 12 13 14 16 18 19 19 20 20 21 21 22 23 24 25 26 27 28 29 29 29 30 30 30 30 29 28 27 26 25 26 26 27 28 28 29 29 30 30 29 29 28 28 27 27 26 26 26 26 26 27 27 26 26 27 27 27 28 29 29 30 31 31 32 33 33 33 34 34 33 33
2 3 3 3 4 4 5 5 6 7 8 9 10 10 10 9 8 8 9 11 13 15 16 17 19 20 20 20 22 24 25 27 28 29 29 30 31 31 31 30 29 28 27 26 26 26 27 28 28 29 29 29 29 30 30 30 30 30 29 29 28 27 27 27 28 28 28 28 29 29 29 29 30 31 31 32 33 33 34 34 35 35 35 35 34 34 34
4 4 4 5 5 6 5 5 5 6 6 7 8 8 8 7 6 5 5 6 8 10 12 14 17 18 19 20 21 22 24 25 26 27 27 27 27 28 28 28 27 26 25 25 25 26 27 28 28 29 29 29 29 29 30 30 30 30 29 29 29 29 29 29 30 30 30 30 30 31 31 32 33 33 34 34 35 35 35 35 35 35 35 35 35 35 35
6 6 6 6 7 7 7 7 6 6 6 6 6 6 6 6 5 4 4 4 6 7 10 12 14 16 17 18 19 20 20 21 22 23 24 24 25 26 27 27 26 25 24 24 25 25 26 26 27 27 27 27 28 28 28 29 29 29 29 30 30 30 31 31 31 31 32 32 33 33 34 35 35 35 35 36 36 35 35 35 35 35 35 35 35 35 35
7 7 7 7 7 7 7 8 7 6 6 5 5 5 5 4 4 3 3 4 5 6 8 10 12 14 15 17 17 18 18 19 20 21 22 23 24 25 25 25 24 23 23 23 24 25 25 26 26 26 26 26 27 27 27 28 29 29 30 30 31 31 31 32 32 33 34 35 35 36 36 36 36 36 36 36 37 36 36 36 36 36 36 36 36 35 35
7 7 7 7 7 6 7 7 7 7 6 5 5 5 4 4 4 3 3 3 4 5 7 8 9 11 13 14 16 17 18 19 19 20 21 22 23 22 22 21 21 21 21 22 23 24 24 25 25 25 25 25 25 26 26 27 29 29 30 31 32 32 33 33 34 35 36 36 36 36 37 37 37 38 38 38 38 38 38 37 37 37 37 37 37 36 36
8 8 8 8 7 7 6 6 6 6 7 6 6 5 5 5 4 4 4 4 4 4 5 6 7 9 10 12 14 15 16 17 18 19 20 20 20 20 20 20 20 20 20 21 21 22 22 23 23 23 24 24 25 25 26 27 29 30 31 32 33 33 34 34 35 35 36 36 37 37 38 39 39 40 40 40 40 40 39 39 38 38 38 38 38 38 38
10 10 9 9 9 8 7 6 6 6 7 7 7 7 7 6 6 5 5 5 5 5 5 5 6 7 8 10 11 12 13 14 15 16 17 17 17 18 18 18 18 19 19 19 20 21 22 23 23 24 25 25 26 26 27 29 30 31 32 33 34 34 35 35 36 37 38 38 39 39 40 40 41 41 41 41 41 40 40 40 39 39 39 40 40 39 39
12 12 11 11 10 10 9 9 8 8 8 8 8 9 8 8 8 7 7 7 6 6 6 7 7 8 9 9 10 11 12 13 13 14 14 15 16 16 16 17 17 18 18 19 20 21 22 23 24 25 26 27 28 28 30 31 32 33 34 34 35 36 36 37 38 39 39 40 40 40 41 41 41 41 41 41 40 40 39 39 39 40 40 41 41 41 40
14 13 13 13 12 12 11 11 10 10 10 10 10 10 9 9 9 9 9 9 8 8 8 8 9 9 10 11 12 13 13 13 14 14 15 15 16 17 17 18 18 19 19 20 21 23 24 25 26 26 28 29 30 31 32 33 34 34 35 35 36 37 38 38 39 39 40 40 40 40 40 40 40 40 40 40 40 39 39 40 41 42 42 42 42 42 42
Wind_Direction
209 209 209 210 213 216 217 216 217 218 218 221 223 222 224 228 229 230 233 234 234 237 238 236 235 237 238 239 240 239 237 235 234 232 230 229 229 229 228 228 231 235 239 241 244 249 256 263 269 272 273 274 276 278 280 282 284 285 285 284 281 279 278 280 282 281 279 278 278 278 278 278 277 277 280 284 288 290 292 293 295 297 299 301 302 302 301
210 210 210 210 212 214 216 216 217 218 219 221 224 224 226 230 231 230 233 236 235 236 238 239 237 236 236 237 238 239 240 240 238 236 234 232 230 228 228 229 232 235 239 243 248 254 260 266 269 271 272 273 275 277 278 280 282 283 283 283 282 281 281 281 282 283 283 282 280 279 277 276 276 279 283 287 289 290 291 293 295 298 299 300 301 300 300
210 209 210 211 213 215 215 216 216 218 219 221 222 224 226 230 232 231 233 236 237 236 237 239 239 238 237 238 239 240 242 243 243 243 242 241 240 238 237 238 239 243 247 251 255 259 263 267 269 270 271 272 274 276 277 279 279 278 279 281 283 283 282 281 282 285 285 282 278 277 276 277 279 283 286 287 288 289 292 294 296 298 299 300 300 300 299
211 211 211 212 215 217 217 217 217 218 219 221 222 223 225 227 230 231 232 234 236 237 238 240 241 242 241 241 242 242 243 245 246 247 248 249 248 247 246 247 248 250 252 255 259 264 267 269 270 270 271 273 275 277 278 278 277 276 277 279 282 283 282 282 284 287 288 284 280 279 279 280 282 284 284 286 288 290 293 295 297 298 299 299 299 299 299
213 213 213 214 216 218 219 219 219 219 221 222 224 225 227 228 230 232 233 234 237 239 241 242 243 244 245 245 246 246 246 247 248 249 249 249 249 249 249 249 250 251 254 258 264 267 268 269 270 270 272 275 277 278 278 278 278 278 277 277 278 279 280 283 286 287 289 289 287 285 284 283 283 283 285 287 290 292 295 296 298 298 299 299 298 298 299
217 216 215 216 217 219 221 221 221 221 222 224 226 228 229 230 232 233 234 236 238 239 241 243 245 246 247 247 247 247 248 248 249 250 251 251 250 250 249 250 251 253 257 261 265 266 267 269 270 272 275 277 278 278 278 280 281 280 279 277 278 278 279 281 284 286 287 287 285 284 283 283 283 285 288 290 293 295 297 298 298 298 298 298 298 299 300
218 217 217 219 219 220 222 223 222 222 223 224 227 228 229 231 233 235 236 237 239 239 241 243 244 245 245 245 244 245 246 247 249 251 252 252 253 253 253 254 255 256 259 262 264 266 268 270 272 274 276 277 276 276 278 281 282 281 281 280 279 278 279 280 282 283 285 285 284 283 283 285 286 289 292 294 296 297 298 298 298 298 298 299 300 301 302
218 217 218 222 222 222 224 225 224 223 224 224 227 228 229 231 233 235 236 237 238 239 240 241 242 243 244 245 245 246 247 248 250 251 251 251 253 254 254 254 254 257 260 262 265 267 269 271 272 274 276 275 274 275 277 279 280 281 282 281 279 277 279 281 281 282 284 286 287 287 288 290 292 294 296 297 298 298 298 298 298 299 299 300 302 303 304
218 217 219 224 225 225 227 227 226 226 225 225 227 228 229 230 232 234 235 236 238 239 240 241 243 244 246 247 248 249 249 250 251 251 250 251 252 251 251 252 254 258 261 264 266 267 267 268 271 274 274 274 273 274 275 276 278 280 282 281 280 279 279 280 281 282 284 286 288 290 292 294 296 297 297 298 298 298 299 298 299 299 300 302 303 304 305
217 217 222 226 227 227 228 228 228 227 226 227 228 229 230 230 231 233 235 236 238 239 241 242 244 246 247 249 250 251 252 251 252 252 252 252 252 252 253 255 258 259 260 261 262 263 264 267 271 273 272 271 272 273 274 275 278 280 281 279 278 278 278 279 281 283 285 287 289 292 293 295 296 297 297 297 298 298 298 298 299 300 301 302 304 305 305
217 217 221 227 230 228 226 227 230 230 228 228 228 230 231 232 232 233 235 237 239 240 241 243 244 246 248 249 249 251 251 251 251 251 252 252 251 251 252 253 253 253 254 256 258 260 263 266 270 272 272 270 269 270 272 275 278 279 279 278 277 276 277 278 281 284 286 289 291 293 295 296 296 296 297 297 297 297 297 298 299 301 302 303 304 305 306
219 219 222 226 230 231 226 225 229 231 229 228 228 229 231 232 231 232 234 236 239 241 242 243 245 246 247 247 247 248 248 249 249 248 247 246 246 246 246 246 247 248 250 253 256 259 263 267 271 273 273 270 268 269 271 275 277 277 277 276 275 275 277 279 283 286 288 291 293 294 295 295 295 296 296 296 296 297 297 299 300 302 303 304 305 306 307
221 223 225 226 230 233 228 226 229 230 230 230 228 228 230 231 230 231 233 234 237 240 242 244 245 246 246 246 245 245 245 245 245 245 244 241 239 239 239 241 244 247 249 251 255 260 265 269 272 273 272 270 268 268 270 273 275 275 275 274 274 275 278 281 285 288 290 292 294 294 294 294 294 295 295 295 295 297 298 300 302 303 304 304 305 307 309
222 225 228 228 231 233 229 226 229 230 230 231 229 227 231 232 231 230 231 232 234 237 239 241 243 244 246 246 245 244 243 242 241 242 241 239 237 236 237 240 244 247 250 253 258 263 266 268 270 272 273 271 268 267 268 271 272 273 273 272 273 275 279 283 287 289 291 292 292 292 292 292 293 294 294 294 296 298 300 301 303 304 305 306 308 310 312
221 225 227 229 232 232 228 228 232 231 230 231 230 230 232 234 232 231 231 231 233 236 238 240 243 245 246 246 246 246 246 242 237 234 234 234 236 237 239 241 244 247 250 254 259 263 266 267 270 272 272 269 265 264 265 268 270 270 270 270 272 276 280 284 286 288 289 290 290 290 290 291 292 293 294 295 298 299 301 302 303 305 307 309 311 313 315
217 223 227 230 233 233 230 231 234 234 233 233 233 232 233 234 234 234 233 232 234 236 238 240 243 246 246 246 246 246 243 238 232 229 231 233 235 238 240 242 245 248 252 256 260 263 266 267 269 271 271 267 262 261 263 265 267 267 266 268 271 275 279 283 285 287 287 287 288 289 290 291 291 293 295 297 299 300 301 303 305 307 310 313 314 316 317
216 222 227 230 231 229 227 228 231 233 233 234 234 234 234 234 236 237 236 236 236 237 238 238 240 243 245 245 245 244 241 235 229 226 229 233 236 239 242 245 248 252 255 259 262 264 266 267 268 270 268 263 259 259 261 263 263 262 263 267 270 274 279 283 285 285 285 286 287 288 288 289 291 294 296 297 299 301 303 305 308 311 313 315 316 318 320
219 223 227 228 226 224 223 224 225 228 230 232 234 236 235 235 236 236 237 239 238 236 235 235 236 240 242 242 242 242 241 238 230 225 226 231 236 239 242 245 248 252 255 259 261 263 264 265 266 265 261 258 257 258 259 259 259 259 262 266 270 274 279 282 283 283 284 285 285 286 287 289 292 294 295 297 300 302 305 309 312 313 314 316 317 319 321
230 232 231 229 228 226 224 223 222 224 227 229 232 235 236 237 238 238 240 242 240 236 234 235 236 238 239 239 238 238 237 235 231 226 225 228 231 234 238 242 246 250 253 256 258 260 261 262 262 259 257 256 257 257 256 255 255 257 262 267 270 275 280 282 282 282 283 283 283 284 287 290 292 293 295 298 302 305 309 312 314 314 315 317 319 321 323
240 240 237 235 233 229 225 224 224 224 226 227 230 233 235 237 238 239 240 239 235 230 230 232 234 235 236 236 235 234 233 232 232 231 230 229 230 233 236 239 243 247 250 253 255 257 258 258 257 256 255 255 256 255 252 251 254 258 263 266 270 275 279 280 280 280 280 279 281 284 288 289 291 293 297 301 305 309 312 313 314 316 317 320 322 324 326
242 241 238 236 235 232 228 225 225 227 228 228 229 231 233 234 235 235 234 232 229 225 225 227 230 232 234 234 234 233 233 235 236 237 237 236 235 235 236 238 240 243 246 250 253 255 255 254 254 254 254 255 254 251 249 251 255 259 262 266 270 275 277 278 278 277 276 277 281 285 287 288 291 295 299 304 309 312 313 314 315 318 320 323 325 327 329
238 236 233 232 233 233 229 226 225 226 228 230 232 233 234 236 237 236 235 236 239 237 232 231 233 235 235 235 235 235 237 239 241 240 239 239 239 239 238 238 239 242 245 249 252 254 255 256 255 254 253 251 250 249 249 252 256 259 262 266 270 273 274 274 273 273 274 277 282 284 286 289 293 298 303 308 311 313 314 315 318 320 323 325 328 329 331
232 229 225 225 229 230 228 227 226 225 226 228 232 235 238 241 243 243 242 244 247 246 244 242 243 243 241 240 239 239 241 242 241 240 240 241 240 240 240 240 240 242 246 250 253 255 257 257 256 253 249 247 247 248 251 254 256 259 262 265 268 269 269 269 270 271 274 278 281 282 285 290 296 302 307 310 312 314 316 318 321 323 326 328 330 331 333
232 229 225 226 227 227 227 227 228 228 227 227 229 232 236 239 241 243 244 245 247 247 247 247 247 247 246 245 243 242 241 240 238 237 239 241 241 240 240 240 241 244 249 252 254 256 257 257 254 249 247 246 248 250 253 256 257 259 261 264 265 265 264 266 269 271 273 276 278 281 287 293 299 305 309 311 313 316 318 321 324 326 329 331 333 335 337
238 235 234 233 234 233 233 233 233 231 230 228 227 229 232 234 237 239 241 242 243 244 245 245 245 244 244 245 245 242 239 238 237 237 237 239 241 241 241 241 243 248 251 252 253 254 255 254 250 246 245 246 250 253 255 255 255 257 259 261 261 260 261 264 268 270 271 274 277 282 289 295 301 307 310 313 316 319 322 325 327 329 332 335 337 339 341
240 237 237 240 241 242 243 243 242 240 237 233 230 229 230 232 235 238 240 241 243 243 243 243 243 242 242 243 244 241 235 233 236 238 238 238 239 241 242 243 245 248 249 249 249 250 249 248 245 243 246 249 252 253 252 252 254 257 258 258 257 256 258 261 265 267 269 272 277 284 291 297 303 308 312 315 318 322 325 327 329 333 336 338 341 343 344
240 239 242 246 248 248 247 246 245 244 242 239 236 234 235 236 238 239 240 242 242 242 242 241 241 240 240 240 241 240 235 232 233 236 238 238 238 241 242 242 245 247 248 246 245 243 242 241 240 242 247 250 250 249 250 253 257 256 253 253 252 252 255 259 262 264 266 271 278 285 292 299 306 310 314 317 321 323 326 328 332 336 339 341 344 346 347
238 240 245 249 251 251 249 246 243 241 241 239 238 238 239 241 242 240 238 238 239 241 241 239 238 237 236 236 237 238 238 236 234 235 236 236 238 241 242 244 247 248 245 242 239 238 238 239 240 241 244 245 245 247 251 254 253 250 248 249 248 249 253 257 259 261 265 271 278 286 293 301 308 312 315 319 322 325 327 331 336 340 342 344 347 348 348
239 241 245 249 250 251 251 248 245 243 241 239 238 239 241 243 242 237 233 234 238 241 240 238 235 233 232 232 233 233 234 234 233 232 233 234 237 240 242 245 247 246 239 235 235 236 238 241 241 241 240 241 243 247 249 248 246 245 245 245 246 248 252 254 255 258 264 270 278 286 295 303 310 314 316 318 322 325 330 336 340 344 347 349 349 350 350
239 240 242 244 247 250 251 250 249 248 246 244 244 244 244 245 242 237 236 238 240 241 240 237 234 231 229 229 230 230 230 229 228 229 230 232 235 238 239 240 241 239 236 236 237 239 241 241 239 237 238 240 243 245 244 243 242 242 242 243 246 249 250 250 252 256 262 269 278 286 295 305 311 314 314 316 321 326 332 339 343 346 348 350 351 351 351
238 238 239 240 244 248 249 249 250 250 249 249 249 249 248 248 246 243 241 241 240 240 238 236 233 231 230 231 231 231 231 230 229 228 227 229 232 237 240 240 235 230 230 236 240 240 238 235 234 235 238 240 241 242 241 240 240 240 240 242 246 247 246 246 250 255 261 269 276 284 295 306 310 310 309 312 319 326 332 338 342 344 347 349 350 350 351
244 243 243 243 245 248 249 249 249 249 248 248 248 249 250 250 247 244 242 240 240 239 238 237 235 234 234 234 235 235 235 235 234 231 229 229 231 235 242 244 237 228 228 235 237 234 230 230 232 235 237 238 239 240 239 238 237 237 239 243 245 244 242 244 248 254 260 266 273 282 295 305 306 304 305 308 315 324 330 335 338 341 343 345 347 348 349
249 249 249 248 248 249 249 249 249 249 248 247 248 249 250 250 249 246 243 240 240 239 239 239 239 238 237 237 237 237 237 236 235 232 229 230 231 233 235 237 235 232 231 233 231 228 230 234 236 236 236 237 238 238 236 235 235 237 239 242 242 241 240 243 247 252 257 262 269 279 291 300 301 299 301 306 313 320 326 330 334 336 338 340 342 343 345
249 249 249 249 249 250 250 251 251 252 252 252 251 251 251 251 250 248 245 242 241 240 240 240 240 240 239 239 238 237 236 236 235 233 230 230 233 234 231 229 231 231 229 228 230 236 242 244 242 240 240 239 238 235 234 234 235 237 239 239 239 239 240 243 245 249 253 259 265 272 281 289 293 294 299 306 313 318 322 326 329 332 333 335 337 338 340
250 250 250 251 251 251 251 251 251 252 252 253 252 252 252 251 250 248 246 245 244 243 242 242 242 240 239 239 238 238 237 236 238 237 233 232 234 234 229 228 229 228 226 229 239 247 248 246 245 243 241 239 236 235 234 234 235 236 236 236 237 238 240 242 244 247 252 256 260 265 271 278 284 290 297 304 310 315 319 322 325 327 329 331 332 333 335
251 251 252 252 252 252 251 251 251 251 251 251 251 251 250 250 248 248 247 245 244 244 243 243 243 241 239 238 238 238 238 237 238 236 232 228 228 228 225 225 226 225 227 236 246 248 247 248 246 242 238 237 236 235 235 234 234 235 235 235 237 238 240 241 244 247 250 254 258 262 268 273 279 286 293 300 305 310 314 317 320 323 325 327 328 330 331
250 251 252 251 251 252 253 253 252 252 252 252 252 251 251 249 248 247 246 245 244 244 243 242 241 240 238 238 238 238 238 238 238 236 233 230 232 233 232 228 225 226 233 242 249 249 248 246 240 236 236 236 235 235 234 233 233 234 234 234 236 238 240 242 245 248 251 255 258 262 267 272 278 284 290 296 301 305 309 313 317 319 322 324 326 327 328
251 252 252 252 253 254 254 254 254 254 254 254 254 254 254 253 251 249 247 246 244 243 243 242 241 240 239 239 239 239 240 240 241 240 240 240 240 240 237 233 230 230 235 242 247 247 245 239 233 231 233 234 234 234 234 233 233 234 233 233 235 238 241 243 246 249 253 256 260 263 268 272 277 282 287 292 297 301 305 309 312 315 318 321 322 324 325
256 256 255 255 255 256 255 255 255 254 255 255 256 256 256 256 255 253 251 248 246 245 244 242 242 241 241 240 240 240 241 242 243 243 243 243 241 238 234 233 233 234 237 241 244 243 240 235 231 228 228 230 232 233 233 233 234 234 233 233 235 238 242 245 248 252 255 259 262 265 269 273 277 282 286 290 294 298 302 305 309 312 314 316 318 321 322
261 261 260 259 258 257 257 257 257 257 258 259 260 261 261 260 259 257 255 252 249 246 244 242 241 240 240 240 239 239 239 240 242 242 242 241 240 238 236 235 237 240 243 246 247 245 240 235 232 228 227 228 231 232 232 233 234 234 234 234 236 238 242 246 250 253 257 260 263 266 270 274 277 281 285 289 292 296 299 302 305 308 310 312 314 316 318
261 261 261 260 258 258 258 258 259 261 263 265 267 269 269 268 265 262 258 254 251 247 244 242 239 238 237 237 238 238 239 239 240 240 239 239 239 238 237 238 240 243 244 245 246 244 241 238 234 232 230 230 232 233 233 234 235 236 236 237 238 240 244 247 251 255 258 261 264 267 271 275 278 281 285 288 292 295 298 300 302 304 306 308 310 312 313
263 264 266 265 264 262 260 258 259 260 263 268 273 277 278 276 271 264 258 253 249 246 243 240 237 237 236 234 231 232 233 233 231 230 231 233 234 235 236 237 239 241 242 240 238 237 237 237 236 235 233 233 234 234 235 236 237 238 239 240 241 244 247 250 254 258 261 264 267 270 273 276 279 282 285 288 291 294 296 298 300 302 304 306 307 308 309
268 272 276 280 281 278 270 262 258 258 263 270 277 282 285 284 277 265 255 248 244 241 239 234 230 230 230 226 221 220 223 223 223 226 228 230 231 232 235 237 239 240 240 237 233 231 232 233 234 234 233 233 234 235 235 236 238 239 240 242 245 247 250 254 257 260 263 266 269 272 274 276 279 282 285 288 290 292 294 296 299 300 302 303 304 305 305
285 296 300 300 299 294 286 275 269 268 272 276 279 282 286 289 283 268 254 245 241 239 236 230 224 222 222 220 218 219 222 223 225 228 232 233 232 233 234 235 238 239 238 236 233 230 229 230 230 231 232 233 235 236 236 237 238 240 242 245 247 250 253 256 258 261 264 267 269 272 275 278 280 283 285 287 289 291 293 295 297 298 300 301 301 301 301
280 292 298 301 300 300 299 299 301 301 299 294 289 287 289 294 295 285 266 252 245 241 237 232 225 221 220 221 222 222 223 225 226 228 230 231 230 229 229 229 231 233 233 233 232 231 230 229 230 231 233 234 236 237 238 239 241 243 245 248 250 253 255 258 260 263 266 269 272 274 277 279 280 282 285 286 288 290 292 294 295 296 297 297 298 298 298
272 279 287 292 296 298 298 300 304 312 316 315 309 301 295 295 297 293 278 261 249 241 235 231 226 220 218 220 222 222 223 224 225 225 225 226 225 225 225 225 226 226 226 226 228 230 230 231 232 233 235 237 239 241 243 244 245 247 249 251 253 255 258 261 264 267 269 272 274 275 277 279 281 282 284 286 288 289 290 292 293 294 294 294 295 295 295
269 273 279 285 292 298 300 301 300 303 309 315 317 312 303 295 286 276 263 249 240 232 227 226 223 219 217 219 220 220 221 222 221 220 221 223 224 225 226 226 226 225 223 223 224 226 228 229 232 234 237 239 241 243 245 246 247 250 252 255 257 260 262 264 266 268 270 271 273 275 277 279 281 283 284 285 286 287 288 290 291 292 292 292 292 292 292
267 270 274 279 286 294 302 306 305 301 298 297 297 299 297 289 274 255 235 227 227 225 223 222 222 220 220 220 220 220 222 223 221 220 222 223 224 225 226 226 226 227 226 226 228 229 231 234 236 239 241 243 245 246 248 250 251 254 256 259 260 262 263 265 266 268 270 272 274 276 278 280 281 282 283 284 284 285 286 287 288 288 289 290 290 291 290
268 270 272 274 277 282 289 298 304 302 295 286 279 276 277 275 268 255 237 223 220 222 225 228 228 226 225 225 224 225 225 225 224 224 224 225 225 225 224 222 223 225 226 228 231 234 237 240 243 244 246 247 249 249 250 252 253 255 257 259 261 263 264 266 268 270 272 274 276 277 278 279 280 280 281 282 283 283 284 284 284 285 286 287 288 289 289
267 270 271 271 271 271 272 275 281 285 284 279 273 269 266 264 262 258 248 236 226 218 218 224 229 231 231 230 228 228 227 227 227 227 226 226 227 227 226 224 225 227 230 233 236 239 242 245 247 248 249 250 251 251 252 253 255 256 258 260 263 265 267 269 270 271 273 274 276 276 277 278 279 280 280 281 281 281 281 281 281 282 282 283 285 286 287
265 267 269 270 270 270 269 267 266 267 269 270 269 268 266 263 261 258 253 245 236 227 220 218 220 224 228 229 228 227 227 227 229 230 230 230 230 230 230 230 232 234 237 240 243 246 248 250 251 252 253 253 254 254 255 256 257 259 260 262 264 266 268 269 271 272 274 275 276 277 278 279 279 280 280 280 280 280 279 279 279 279 279 280 282 284 285
264 265 266 269 270 271 271 270 267 265 266 267 268 269 269 268 264 261 258 254 250 244 237 230 225 225 226 227 227 227 227 226 227 229 232 233 234 234 235 237 238 240 242 245 247 249 251 252 253 254 255 255 256 256 257 258 260 261 263 265 266 268 270 271 272 273 275 276 277 277 278 278 279 279 279 279 278 278 278 277 276 276 277 279 281 282 284
Height
5673 5676 5679 5683 5687 5689 5692 5695 5698 5701 5704 5705 5706 5710 5713 5714 5716 5720 5723 5726 5729 5732 5735 5739 5742 5745 5748 5750 5752 5755 5757 5759 5761 5763 5765 5767 5768 5770 5771 5773 5774 5775 5776 5777 5778 5779 5779 5779 5779 5779 5779 5779 5778 5778 5777 5777 5776 5775 5774 5773 5773 5772 5772 5771 5770 5769 5768 5768 5767 5767 5766 5765 5764 5764 5763 5762 5761 5760 5758 5757 5755 5753 5751 5749 5746 5744 5742
5671 5674 5678 5680 5683 5685 5688 5691 5695 5697 5700 5702 5704 5708 5711 5711 5714 5719 5721 5722 5726 5729 5731 5735 5738 5741 5743 5746 5748 5751 5753 5756 5758 5760 5762 5764 5765 5767 5768 5770 5771 5772 5773 5774 5774 5775 5775 5775 5775 5775 5775 5775 5774 5774 5773 5773 5772 5771 5770 5769 5768 5768 5767 5767 5766 5765 5764 5764 5763 5762 5762 5761 5760 5760 5759 5759 5757 5756 5754 5753 5751 5749 5747 5744 5742 5740 5738
5668 5672 5675 5677 5679 5681 5684 5688 5691 5694 5696 5698 5701 5704 5706 5707 5711 5715 5717 5719 5723 5726 5728 5731 5733 5736 5740 5742 5745 5748 5750 5752 5754 5756 5758 5760 5762 5763 5765 5766 5767 5768 5769 5770 5771 5771 5771 5772 5772 5772 5771 5771 5770 5770 5769 5768 5768 5767 5766 5765 5764 5764 5763 5762 5762 5761 5760 5759 5759 5758 5758 5757 5757 5756 5756 5755 5754 5752 5750 5748 5746 5744 5742 5740 5738 5736 5734
5666 5669 5672 5675 5677 5679 5682 5684 5687 5690 5692 5694 5697 5699 5700 5704 5707 5711 5714 5716 5719 5722 5725 5727 5730 5733 5736 5739 5741 5744 5746 5749 5751 5753 5755 5756 5758 5759 5761 5762 5763 5764 5765 5766 5767 5767 5768 5768 5768 5768 5767 5767 5766 5766 5765 5764 5763 5763 5762 5761 5760 5760 5759 5758 5758 5757 5756 5755 5755 5755 5755 5754 5754 5753 5752 5751 5750 5748 5746 5744 5742 5740 5738 5736 5734 5732 5729
5665 5668 5670 5673 5675 5677 5679 5681 5684 5687 5689 5691 5694 5696 5699 5702 5705 5707 5710 5713 5716 5719 5722 5724 5727 5729 5732 5736 5738 5741 5743 5745 5747 5749 5751 5753 5754 5755 5756 5758 5759 5760 5761 5762 5763 5763 5764 5764 5764 5764 5763 5763 5762 5761 5760 5760 5759 5759 5758 5757 5756 5756 5755 5755 5755 5754 5753 5753 5753 5752 5752 5751 5750 5750 5749 5747 5746 5744 5742 5740 5738 5736 5734 5732 5730 5728 5725
5664 5666 5669 5671 5672 5674 5676 5679 5682 5684 5687 5689 5692 5694 5698 5701 5702 5704 5708 5711 5714 5716 5719 5721 5724 5726 5729 5732 5734 5736 5738 5741 5743 5745 5747 5748 5750 5751 5752 5754 5755 5756 5757 5758 5759 5759 5760 5760 5760 5759 5759 5758 5758 5757 5756 5755 5755 5754 5754 5753 5753 5752 5752 5752 5751 5751 5750 5751 5751 5750 5749 5748 5747 5746 5745 5743 5742 5740 5738 5736 5734 5732 5730 5728 5726 5724 5721
5661 5665 5667 5668 5669 5672 5673 5675 5679 5682 5684 5687 5689 5692 5695 5697 5699 5702 5705 5708 5710 5713 5716 5717 5720 5722 5724 5727 5729 5732 5734 5736 5739 5741 5742 5744 5746 5747 5748 5750 5751 5752 5753 5754 5755 5755 5756 5756 5755 5755 5755 5754 5753 5753 5752 5752 5751 5751 5750 5750 5750 5749 5748 5748 5748 5748 5747 5747 5747 5746 5745 5745 5744 5742 5741 5739 5738 5736 5734 5732 5730 5728 5726 5724 5722 5720 5717
5659 5662 5664 5665 5667 5669 5671 5673 5677 5680 5683 5685 5686 5688 5692 5694 5697 5700 5702 5704 5707 5709 5711 5713 5715 5717 5720 5722 5725 5728 5730 5733 5735 5737 5739 5740 5742 5744 5745 5746 5747 5748 5749 5750 5750 5751 5751 5751 5751 5751 5750 5750 5749 5748 5748 5748 5748 5747 5747 5747 5747 5746 5745 5745 5744 5744 5744 5744 5743 5742 5742 5741 5739 5738 5737 5735 5734 5732 5730 5728 5726 5724 5722 5720 5718 5715 5713
5657 5660 5662 5663 5665 5667 5669 5672 5675 5678 5680 5682 5684 5686 5689 5691 5694 5697 5699 5701 5703 5705 5707 5709 5712 5714 5716 5719 5721 5724 5727 5729 5731 5733 5735 5737 5738 5740 5741 5742 5743 5744 5745 5746 5746 5747 5747 5747 5747 5746 5746 5745 5745 5745 5744 5744 5744 5744 5744 5743 5743 5743 5742 5742 5741 5741 5740 5740 5739 5739 5738 5737 5736 5734 5733 5731 5730 5728 5726 5724 5722 5720 5718 5716 5714 5712 5709
5656 5658 5660 5661 5662 5665 5668 5671 5673 5675 5677 5680 5681 5683 5686 5689 5691 5693 5696 5698 5700 5702 5704 5706 5708 5710 5713 5716 5718 5721 5723 5725 5727 5729 5731 5733 5734 5735 5736 5738 5739 5740 5741 5741 5742 5742 5743 5743 5743 5742 5742 5742 5741 5741 5741 5741 5741 5741 5740 5740 5740 5739 5739 5738 5738 5738 5737 5737 5736 5735 5734 5733 5732 5731 5729 5728 5726 5724 5722 5721 5719 5717 5715 5713 5710 5708 5706
5653 5655 5657 5658 5660 5662 5666 5669 5670 5672 5675 5677 5678 5681 5684 5686 5689 5691 5693 5695 5698 5700 5702 5703 5705 5707 5710 5713 5715 5717 5719 5721 5723 5725 5726 5728 5729 5731 5732 5733 5735 5736 5736 5737 5738 5738 5739 5739 5739 5738 5738 5738 5738 5737 5737 5738 5738 5737 5737 5737 5736 5736 5736 5735 5735 5734 5734 5733 5733 5732 5731 5730 5729 5727 5726 5724 5722 5721 5719 5717 5716 5714 5711 5709 5707 5704 5702
5651 5653 5654 5656 5658 5659 5663 5666 5667 5669 5671 5673 5676 5680 5681 5683 5685 5688 5690 5693 5695 5697 5698 5700 5702 5704 5707 5710 5712 5713 5715 5716 5718 5720 5722 5724 5725 5727 5728 5729 5730 5731 5732 5733 5734 5734 5734 5735 5735 5735 5734 5734 5734 5734 5734 5734 5734 5734 5734 5733 5733 5733 5732 5732 5731 5731 5730 5730 5729 5728 5727 5726 5725 5724 5722 5721 5719 5717 5716 5714 5712 5710 5708 5706 5703 5701 5698
5649 5651 5652 5654 5656 5657 5660 5663 5664 5666 5668 5670 5673 5677 5678 5679 5682 5685 5687 5689 5691 5693 5695 5697 5699 5701 5703 5705 5708 5709 5710 5712 5714 5716 5718 5720 5721 5722 5724 5725 5726 5728 5728 5729 5730 5730 5731 5731 5731 5731 5730 5730 5730 5731 5731 5731 5731 5731 5731 5730 5730 5730 5729 5729 5728 5727 5727 5726 5726 5725 5724 5723 5722 5720 5719 5718 5716 5714 5713 5711 5709 5707 5705 5702 5700 5697 5694
5647 5649 5650 5652 5653 5654 5657 5660 5661 5663 5666 5667 5670 5673 5675 5676 5680 5682 5683 5685 5688 5690 5692 5694 5695 5697 5699 5702 5704 5705 5706 5708 5710 5712 5714 5715 5716 5718 5720 5721 5722 5724 5724 5725 5726 5726 5727 5727 5727 5727 5727 5727 5727 5727 5728 5728 5728 5728 5727 5727 5727 5726 5726 5725 5725 5724 5724 5723 5722 5721 5720 5719 5718 5717 5716 5714 5713 5711 5709 5707 5705 5703 5701 5699 5696 5693 5690
5645 5646 5648 5649 5649 5651 5656 5658 5659 5660 5663 5665 5668 5671 5672 5674 5676 5678 5680 5683 5685 5686 5688 5690 5692 5694 5697 5698 5700 5701 5702 5704 5706 5708 5710 5711 5712 5714 5716 5717 5719 5719 5720 5721 5722 5722 5723 5723 5723 5723 5723 5723 5724 5724 5724 5725 5725 5724 5724 5724 5724 5723 5723 5722 5722 5721 5721 5720 5719 5718 5717 5716 5715 5714 5712 5711 5709 5708 5706 5704 5702 5700 5698 5695 5692 5689 5686
5643 5644 5645 5646 5648 5651 5654 5656 5656 5658 5661 5663 5665 5667 5669 5670 5672 5674 5677 5679 5681 5683 5685 5687 5689 5691 5693 5695 5696 5697 5699 5700 5702 5704 5705 5707 5709 5710 5712 5713 5714 5715 5716 5717 5718 5718 5719 5719 5719 5719 5719 5720 5720 5721 5721 5721 5721 5721 5721 5721 5721 5720 5720 5720 5719 5718 5718 5717 5716 5715 5714 5713 5711 5710 5709 5707 5706 5704 5703 5701 5699 5696 5694 5691 5688 5685 5682
5640 5641 5642 5644 5646 5648 5650 5651 5653 5655 5657 5660 5662 5663 5665 5667 5669 5671 5674 5676 5678 5680 5681 5683 5685 5687 5689 5691 5692 5694 5695 5696 5698 5700 5702 5703 5705 5706 5708 5709 5710 5711 5712 5713 5713 5714 5715 5715 5715 5715 5716 5716 5717 5717 5718 5718 5718 5718 5718 5718 5718 5717 5717 5717 5716 5715 5715 5714 5712 5711 5710 5709 5708 5707 5706 5704 5703 5701 5699 5698 5695 5693 5690 5688 5685 5682 5679
5638 5639 5640 5641 5642 5644 5645 5647 5649 5651 5653 5656 5658 5659 5661 5664 5666 5668 5670 5672 5674 5676 5678 5680 5682 5683 5685 5687 5688 5690 5692 5693 5694 5696 5697 5699 5700 5702 5704 5705 5706 5707 5708 5708 5709 5710 5710 5710 5711 5712 5712 5713 5713 5714 5714 5714 5714 5715 5715 5715 5714 5714 5714 5714 5713 5712 5711 5710 5709 5708 5707 5706 5705 5704 5703 5701 5700 5698 5696 5694 5692 5690 5687 5685 5682 5679 5677
5636 5637 5638 5639 5639 5640 5642 5643 5645 5647 5649 5652 5654 5656 5657 5660 5662 5664 5666 5668 5670 5671 5674 5676 5678 5680 5682 5683 5685 5686 5688 5690 5691 5692 5693 5695 5697 5698 5699 5700 5701 5703 5704 5704 5705 5706 5706 5707 5707 5708 5708 5709 5710 5710 5711 5711 5711 5712 5712 5711 5711 5711 5711 5710 5710 5709 5708 5707 5706 5706 5704 5703 5702 5701 5700 5698 5697 5695 5693 5691 5689 5686 5684 5682 5679 5677 5675
5633 5634 5635 5636 5637 5638 5639 5640 5642 5644 5646 5648 5650 5652 5654 5656 5659 5661 5663 5664 5666 5667 5669 5672 5675 5677 5678 5679 5681 5683 5685 5686 5688 5689 5690 5691 5693 5694 5695 5696 5697 5698 5699 5700 5701 5701 5702 5703 5703 5704 5705 5706 5706 5707 5707 5708 5708 5708 5708 5708 5708 5708 5708 5707 5706 5706 5705 5704 5704 5702 5701 5700 5699 5698 5697 5696 5694 5692 5690 5688 5686 5683 5681 5679 5677 5675 5672
5630 5631 5632 5633 5634 5635 5636 5638 5639 5641 5643 5645 5646 5648 5651 5653 5655 5657 5659 5661 5662 5664 5666 5668 5671 5673 5674 5676 5678 5679 5681 5683 5684 5685 5687 5688 5689 5690 5691 5692 5693 5694 5695 5696 5697 5698 5698 5699 5700 5701 5701 5702 5703 5703 5704 5704 5705 5705 5705 5705 5705 5705 5704 5704 5703 5703 5702 5701 5700 5699 5698 5697 5696 5695 5694 5693 5691 5689 5687 5685 5683 5681 5679 5677 5675 5672 5670
5627 5628 5629 5630 5631 5632 5633 5635 5636 5638 5640 5642 5644 5645 5647 5649 5651 5653 5655 5657 5659 5661 5663 5665 5667 5668 5670 5672 5674 5675 5677 5679 5680 5682 5683 5684 5685 5686 5687 5688 5689 5690 5691 5692 5693 5694 5695 5696 5696 5697 5697 5698 5699 5700 5701 5701 5702 5702 5702 5702 5702 5701 5701 5700 5700 5700 5699 5698 5697 5697 5696 5695 5694 5693 5691 5690 5688 5687 5685 5682 5681 5679 5677 5675 5673 5670 5668
5625 5625 5627 5628 5628 5629 5631 5632 5633 5635 5637 5639 5640 5643 5645 5647 5648 5650 5652 5654 5655 5657 5659 5661 5662 5664 5665 5667 5669 5671 5672 5674 5676 5677 5678 5679 5681 5682 5683 5684 5685 5686 5687 5688 5689 5690 5691 5692 5692 5693 5694 5695 5696 5697 5697 5698 5698 5698 5698 5698 5698 5698 5697 5697 5697 5696 5696 5695 5694 5694 5693 5692 5691 5690 5689 5687 5685 5684 5682 5680 5678 5677 5675 5673 5671 5669 5666
5623 5623 5624 5625 5626 5627 5628 5629 5630 5632 5633 5635 5637 5639 5641 5643 5645 5647 5648 5650 5652 5653 5655 5656 5658 5659 5660 5662 5663 5665 5667 5669 5671 5672 5673 5675 5676 5677 5678 5680 5681 5682 5683 5684 5685 5686 5687 5688 5689 5689 5690 5691 5692 5693 5694 5694 5694 5694 5694 5695 5694 5694 5694 5694 5694 5693 5693 5692 5692 5691 5690 5689 5688 5687 5686 5684 5682 5681 5679 5678 5676 5674 5673 5671 5669 5667 5664
5621 5622 5623 5623 5624 5625 5626 5627 5628 5629 5630 5632 5634 5635 5637 5639 5641 5643 5644 5646 5647 5649 5650 5651 5653 5654 5655 5656 5658 5660 5663 5664 5666 5667 5668 5670 5671 5673 5674 5675 5677 5678 5679 5680 5681 5682 5683 5684 5685 5686 5687 5688 5689 5689 5690 5690 5690 5690 5691 5691 5691 5691 5691 5691 5691 5690 5690 5690 5689 5689 5688 5687 5686 5685 5683 5682 5680 5678 5677 5675 5674 5672 5671 5669 5667 5665 5662
5619 5620 5621 5621 5622 5623 5623 5624 5625 5626 5627 5629 5630 5632 5633 5635 5637 5638 5640 5641 5643 5644 5645 5647 5648 5649 5651 5652 5653 5655 5658 5660 5661 5662 5664 5665 5667 5668 5670 5671 5672 5673 5674 5675 5676 5678 5679 5680 5681 5682 5683 5684 5685 5685 5686 5686 5687 5687 5687 5687 5687 5688 5688 5688 5688 5687 5687 5687 5686 5686 5685 5684 5683 5682 5680 5679 5677 5676 5675 5674 5672 5671 5669 5667 5665 5663 5661
5616 5617 5618 5619 5619 5620 5620 5621 5622 5623 5624 5625 5627 5628 5630 5631 5633 5634 5636 5637 5638 5640 5641 5642 5643 5645 5646 5648 5649 5651 5653 5656 5657 5658 5660 5661 5663 5664 5665 5666 5668 5669 5670 5671 5672 5674 5675 5676 5678 5679 5680 5681 5682 5682 5683 5683 5683 5684 5684 5684 5684 5685 5685 5685 5685 5685 5684 5684 5684 5683 5683 5682 5681 5679 5678 5677 5675 5674 5673 5672 5671 5669 5667 5665 5663 5661 5659
5614 5615 5616 5616 5617 5618 5618 5618 5619 5620 5621 5622 5624 5625 5627 5628 5629 5631 5632 5633 5634 5636 5637 5638 5639 5641 5642 5644 5646 5648 5649 5651 5653 5654 5656 5657 5658 5659 5660 5662 5663 5664 5666 5667 5669 5670 5671 5673 5674 5675 5676 5677 5678 5678 5679 5680 5680 5680 5680 5681 5681 5682 5682 5682 5682 5682 5682 5682 5681 5681 5680 5679 5678 5677 5676 5674 5673 5673 5672 5670 5669 5667 5666 5664 5662 5660 5658
5612 5613 5614 5614 5615 5615 5616 5616 5617 5617 5618 5619 5621 5622 5623 5625 5626 5627 5629 5630 5631 5632 5633 5634 5635 5637 5639 5640 5642 5644 5645 5647 5648 5650 5652 5653 5654 5654 5656 5658 5659 5660 5662 5664 5665 5667 5668 5669 5670 5671 5672 5673 5674 5675 5675 5676 5676 5677 5677 5678 5678 5679 5679 5679 5679 5679 5679 5679 5679 5678 5677 5677 5676 5674 5673 5672 5672 5671 5670 5669 5667 5666 5664 5662 5660 5658 5656
5610 5610 5611 5612 5613 5613 5614 5614 5615 5615 5616 5617 5618 5619 5621 5622 5623 5624 5625 5627 5628 5629 5630 5631 5632 5634 5636 5637 5639 5640 5641 5643 5644 5645 5647 5649 5650 5650 5651 5653 5654 5656 5659 5661 5662 5663 5664 5665 5666 5667 5668 5669 5670 5671 5672 5672 5673 5673 5674 5675 5675 5676 5676 5676 5676 5676 5676 5676 5676 5676 5675 5674 5673 5672 5671 5671 5670 5669 5668 5667 5665 5664 5662 5661 5659 5657 5655
5608 5608 5609 5610 5611 5611 5612 5612 5613 5613 5614 5615 5616 5617 5618 5619 5620 5621 5622 5623 5625 5626 5627 5628 5629 5631 5632 5633 5635 5637 5638 5639 5641 5642 5644 5645 5646 5646 5646 5647 5649 5652 5655 5657 5658 5659 5660 5661 5662 5664 5665 5665 5666 5667 5668 5669 5670 5670 5671 5671 5672 5672 5673 5673 5674 5674 5674 5674 5674 5673 5672 5672 5671 5670 5670 5669 5668 5667 5666 5665 5664 5662 5661 5659 5657 5655 5653
5606 5606 5607 5608 5608 5609 5609 5610 5611 5611 5612 5613 5614 5615 5615 5616 5617 5618 5619 5621 5622 5623 5624 5625 5626 5627 5629 5630 5632 5634 5635 5636 5637 5639 5640 5641 5642 5643 5644 5645 5646 5648 5650 5652 5653 5655 5656 5657 5659 5660 5661 5662 5663 5664 5665 5665 5666 5667 5668 5668 5669 5669 5670 5670 5671 5671 5671 5671 5671 5671 5670 5669 5669 5668 5668 5667 5666 5666 5665 5663 5662 5660 5659 5657 5655 5654 5652
5604 5604 5605 5605 5606 5607 5607 5608 5608 5609 5610 5611 5611 5612 5613 5614 5615 5616 5617 5618 5619 5620 5621 5623 5624 5625 5626 5628 5629 5630 5631 5633 5634 5636 5637 5638 5638 5640 5641 5642 5644 5645 5647 5648 5650 5651 5652 5653 5655 5656 5657 5658 5659 5660 5661 5662 5663 5664 5664 5665 5666 5667 5667 5668 5668 5668 5668 5669 5668 5668 5668 5667 5666 5666 5666 5665 5664 5663 5662 5661 5660 5659 5657 5655 5654 5652 5650
5601 5601 5602 5603 5603 5604 5605 5605 5606 5607 5607 5608 5609 5610 5611 5611 5612 5613 5614 5615 5616 5617 5619 5620 5621 5622 5624 5625 5626 5627 5628 5629 5631 5632 5633 5635 5636 5637 5639 5639 5640 5642 5644 5645 5647 5648 5649 5650 5651 5652 5653 5654 5655 5656 5657 5658 5659 5660 5661 5662 5663 5664 5664 5665 5665 5666 5666 5666 5666 5666 5665 5665 5664 5664 5663 5663 5662 5661 5660 5659 5658 5657 5655 5654 5652 5650 5648
5598 5598 5599 5600 5600 5601 5602 5602 5603 5604 5604 5605 5606 5607 5608 5608 5609 5610 5611 5612 5613 5614 5616 5617 5618 5619 5621 5622 5623 5624 5625 5626 5627 5628 5630 5631 5633 5634 5636 5636 5637 5639 5641 5642 5643 5644 5645 5646 5647 5648 5649 5650 5651 5653 5654 5655 5656 5657 5658 5659 5660 5661 5662 5662 5663 5663 5663 5663 5663 5663 5663 5662 5662 5662 5661 5660 5660 5659 5658 5657 5655 5654 5653 5651 5650 5648 5646
5595 5595 5596 5597 5597 5598 5598 5599 5600 5600 5601 5602 5602 5603 5604 5605 5606 5607 5608 5609 5610 5611 5612 5613 5615 5616 5618 5619 5620 5621 5622 5623 5623 5625 5626 5628 5629 5631 5633 5633 5634 5636 5637 5639 5639 5640 5641 5643 5644 5645 5646 5647 5648 5649 5651 5652 5653 5654 5655 5656 5657 5658 5659 5659 5660 5660 5660 5661 5660 5660 5660 5660 5659 5659 5659 5658 5657 5656 5655 5654 5653 5652 5650 5649 5647 5646 5644
5592 5592 5593 5593 5594 5594 5595 5596 5596 5597 5597 5598 5599 5599 5600 5601 5602 5602 5604 5605 5606 5607 5608 5609 5611 5612 5613 5615 5616 5617 5618 5619 5620 5621 5623 5625 5626 5628 5629 5630 5632 5633 5635 5635 5636 5637 5638 5640 5640 5641 5642 5644 5645 5646 5648 5649 5650 5651 5652 5653 5654 5655 5656 5656 5657 5657 5658 5658 5658 5658 5657 5657 5657 5656 5656 5655 5655 5654 5653 5652 5651 5649 5648 5646 5645 5643 5641
5590 5590 5590 5591 5591 5591 5592 5592 5593 5593 5594 5594 5595 5595 5596 5597 5597 5598 5599 5600 5601 5603 5604 5605 5606 5607 5609 5610 5612 5613 5615 5616 5617 5619 5620 5622 5624 5625 5627 5628 5630 5631 5632 5632 5633 5634 5635 5636 5637 5638 5639 5641 5642 5643 5645 5646 5647 5648 5649 5650 5651 5652 5653 5653 5654 5654 5654 5655 5655 5655 5654 5654 5654 5653 5653 5652 5652 5651 5650 5649 5648 5647 5645 5644 5642 5640 5639
5588 5588 5588 5588 5589 5589 5589 5590 5590 5590 5591 5591 5591 5592 5592 5593 5593 5594 5595 5596 5597 5598 5599 5600 5601 5603 5604 5606 5607 5609 5611 5612 5614 5615 5617 5618 5620 5622 5624 5625 5626 5627 5627 5628 5629 5630 5631 5632 5633 5635 5636 5637 5639 5640 5642 5643 5644 5645 5646 5647 5648 5649 5649 5650 5651 5651 5651 5651 5651 5651 5651 5651 5651 5650 5650 5649 5649 5648 5647 5646 5645 5644 5643 5641 5640 5638 5636
5586 5586 5586 5586 5587 5587 5587 5587 5587 5588 5588 5588 5588 5589 5589 5589 5589 5590 5590 5591 5592 5593 5594 5595 5596 5598 5599 5601 5602 5604 5606 5608 5609 5611 5612 5614 5615 5617 5619 5620 5621 5622 5623 5624 5626 5627 5628 5629 5630 5631 5633 5634 5636 5637 5639 5640 5641 5642 5643 5644 5645 5646 5646 5647 5647 5648 5648 5648 5648 5648 5648 5648 5647 5647 5646 5646 5645 5644 5644 5643 5642 5641 5640 5638 5637 5635 5634
5584 5584 5584 5584 5584 5585 5585 5585 5585 5585 5585 5585 5586 5586 5586 5586 5586 5586 5586 5587 5587 5588 5589 5590 5591 5593 5594 5596 5598 5600 5601 5603 5605 5607 5608 5610 5611 5613 5614 5615 5617 5618 5619 5621 5622 5623 5624 5626 5627 5628 5629 5631 5632 5634 5635 5637 5638 5639 5640 5641 5642 5642 5643 5644 5644 5645 5645 5645 5645 5645 5645 5644 5644 5643 5643 5642 5642 5641 5640 5639 5638 5637 5636 5635 5634 5632 5630
5583 5583 5583 5582 5582 5583 5583 5583 5583 5583 5583 5583 5583 5583 5583 5582 5582 5582 5582 5582 5583 5584 5585 5586 5587 5589 5590 5592 5595 5597 5598 5600 5602 5604 5605 5606 5608 5609 5610 5611 5612 5613 5615 5617 5618 5620 5621 5623 5624 5625 5626 5628 5629 5631 5632 5633 5634 5636 5637 5637 5638 5639 5640 5640 5641 5641 5641 5642 5642 5641 5641 5641 5640 5640 5639 5639 5638 5637 5636 5635 5635 5634 5632 5631 5630 5628 5627
5581 5581 5581 5581 5581 5581 5581 5581 5581 5581 5581 5581 5581 5581 5580 5580 5579 5579 5579 5579 5580 5580 5581 5583 5584 5585 5587 5589 5591 5594 5595 5597 5599 5600 5601 5603 5604 5605 5606 5607 5608 5610 5611 5613 5615 5616 5618 5619 5621 5622 5623 5625 5626 5628 5629 5630 5631 5632 5633 5634 5635 5636 5636 5637 5637 5638 5638 5638 5638 5638 5637 5637 5637 5636 5635 5635 5634 5633 5632 5631 5630 5629 5628 5627 5626 5624 5623
5581 5581 5581 5580 5580 5580 5580 5580 5580 5580 5579 5579 5579 5578 5578 5578 5577 5577 5577 5577 5577 5578 5579 5580 5581 5583 5584 5586 5588 5590 5592 5593 5595 5596 5597 5599 5601 5602 5603 5604 5606 5607 5609 5610 5611 5613 5614 5616 5617 5619 5620 5622 5623 5624 5626 5627 5628 5629 5630 5631 5632 5632 5633 5633 5634 5634 5634 5634 5634 5634 5633 5633 5633 5632 5631 5631 5630 5629 5628 5627 5626 5625 5624 5623 5621 5620 5618
5580 5580 5580 5580 5579 5579 5579 5579 5579 5579 5578 5578 5577 5577 5577 5576 5576 5575 5575 5575 5575 5576 5577 5577 5579 5580 5582 5583 5585 5586 5588 5589 5591 5592 5594 5596 5597 5598 5600 5601 5603 5604 5605 5607 5609 5610 5611 5612 5614 5615 5617 5618 5620 5621 5622 5624 5625 5626 5627 5627 5628 5629 5629 5629 5630 5630 5630 5630 5630 5629 5629 5628 5628 5627 5627 5626 5625 5624 5624 5623 5622 5621 5619 5618 5617 5616 5614
5579 5579 5579 5579 5578 5578 5578 5578 5578 5578 5577 5577 5576 5576 5576 5575 5575 5574 5574 5574 5574 5575 5575 5576 5577 5578 5580 5581 5582 5584 5585 5587 5588 5589 5591 5592 5593 5594 5596 5597 5599 5600 5602 5604 5605 5607 5608 5610 5611 5612 5614 5615 5617 5618 5619 5620 5621 5622 5623 5624 5624 5625 5625 5625 5626 5626 5625 5625 5625 5624 5624 5623 5623 5622 5622 5621 5620 5620 5619 5618 5617 5616 5615 5613 5612 5611 5609
5578 5578 5578 5577 5577 5577 5577 5577 5577 5577 5576 5576 5576 5575 5575 5575 5574 5574 5574 5574 5574 5574 5574 5575 5576 5577 5578 5579 5580 5581 5583 5584 5585 5586 5588 5589 5590 5591 5593 5595 5596 5598 5599 5601 5602 5604 5605 5606 5608 5609 5611 5612 5613 5614 5616 5617 5617 5618 5619 5620 5620 5621 5621 5621 5621 5621 5621 5620 5620 5619 5619 5618 5618 5617 5617 5616 5615 5614 5614 5613 5612 5611 5610 5608 5607 5606 5605
5576 5576 5576 5576 5576 5576 5576 5575 5575 5575 5575 5575 5575 5575 5574 5574 5574 5573 5573 5573 5573 5573 5574 5574 5575 5575 5576 5577 5578 5579 5580 5581 5583 5584 5585 5586 5588 5589 5591 5592 5594 5596 5597 5598 5600 5601 5602 5603 5605 5606 5607 5608 5610 5611 5612 5613 5614 5614 5615 5616 5616 5616 5617 5617 5616 5616 5616 5615 5615 5615 5614 5613 5613 5612 5611 5611 5610 5609 5608 5608 5607 5606 5604 5603 5602 5601 5600
5575 5575 5575 5575 5574 5574 5574 5574 5574 5574 5574 5574 5574 5574 5573 5573 5573 5573 5573 5573 5573 5573 5573 5573 5574 5574 5575 5576 5577 5577 5578 5579 5581 5582 5583 5584 5585 5587 5588 5590 5591 5593 5594 5596 5597 5598 5599 5600 5601 5602 5604 5605 5606 5607 5609 5609 5610 5611 5611 5611 5612 5612 5612 5612 5612 5611 5611 5610 5610 5609 5609 5608 5607 5606 5606 5605 5604 5604 5603 5602 5601 5600 5599 5597 5596 5595 5594
5573 5573 5573 5573 5573 5573 5573 5573 5573 5572 5572 5572 5572 5572 5572 5572 5572 5572 5572 5572 5572 5572 5572 5573 5573 5574 5574 5575 5575 5576 5577 5578 5579 5580 5581 5582 5584 5585 5586 5588 5589 5590 5592 5593 5594 5595 5596 5597 5598 5599 5600 5601 5602 5604 5605 5605 5606 5606 5607 5607 5607 5607 5607 5607 5607 5606 5605 5605 5604 5604 5603 5602 5601 5601 5600 5599 5599 5598 5597 5596 5595 5594 5593 5591 5590 5589 5588
5571 5571 5571 5571 5571 5571 5571 5571 5571 5571 5571 5571 5571 5571 5571 5571 5571 5571 5571 5571 5571 5571 5571 5572 5572 5573 5573 5574 5574 5575 5576 5576 5577 5579 5580 5581 5582 5583 5585 5586 5587 5588 5589 5590 5591 5592 5593 5594 5595 5596 5597 5598 5599 5599 5600 5601 5601 5601 5602 5602 5602 5602 5602 5602 5601 5600 5600 5599 5598 5598 5597 5596 5595 5595 5594 5593 5592 5592 5591 5590 5589 5588 5586 5585 5584 5583 5582
5569 5569 5569 5569 5569 5569 5569 5569 5569 5569 5569 5569 5569 5569 5569 5570 5570 5570 5570 5570 5570 5570 5570 5570 5571 5571 5572 5572 5573 5574 5574 5575 5576 5577 5578 5579 5580 5581 5582 5583 5584 5585 5586 5587 5588 5589 5589 5590 5591 5592 5592 5593 5594 5595 5595 5595 5596 5596 5597 5597 5597 5596 5596 5596 5595 5594 5594 5593 5592 5591 5591 5590 5589 5588 5587 5587 5586 5585 5584 5583 5582 5581 5580 5579 5578 5577 5576